Temp
26 30 30 31 29 28 28 28 28 28 28 28 28 28 25 23 23 23 23 22 22 22 23 23 23 23 23 22 22 22 22 21 20 20 19 19 20 20 20 20 20 20 20 19
28 29 30 28 27 28 28 28 28 28 27 27 27 27 26 24 24 24 23 23 23 23 23 22 23 23 23 23 23 22 22 22 21 20 20 20 20 20 20 20 20 20 20 20
28 29 27 29 28 28 28 29 28 29 27 26 27 28 24 24 24 24 24 24 24 23 23 23 23 24 24 23 23 23 23 22 21 21 21 20 20 20 20 20 20 20 20 20
28 27 27 28 29 29 30 28 28 28 28 28 26 29 25 25 24 24 24 24 24 24 24 24 23 23 24 24 24 24 23 23 22 21 21 21 20 20 20 20 20 20 20 20
28 27 28 28 30 28 30 27 28 27 27 28 27 29 30 24 25 25 24 25 24 25 25 24 25 24 25 25 25 25 24 23 22 22 21 21 20 20 20 21 21 21 20 20
28 25 27 30 27 28 26 28 27 27 28 28 28 29 31 28 28 27 26 25 25 25 25 25 26 25 26 25 25 25 25 24 23 22 21 21 21 20 21 21 21 21 21 20
26 27 28 28 29 26 27 30 29 28 28 28 26 27 30 30 29 29 28 26 26 26 25 25 26 26 26 26 26 26 25 24 23 22 22 21 21 21 21 21 21 21 21 21
27 27 28 28 30 29 29 30 30 28 28 30 25 29 32 30 28 27 27 28 26 26 26 26 28 27 27 27 26 26 25 24 24 23 22 21 21 21 21 21 21 21 21 21
26 27 26 27 28 29 27 28 29 28 24 28 29 29 31 30 30 29 27 26 26 26 26 26 28 27 27 27 27 26 26 25 24 24 22 22 21 21 21 21 21 21 21 21
27 27 27 28 28 26 29 28 29 27 28 27 29 27 31 32 33 31 29 27 26 26 26 26 28 28 28 27 27 26 26 25 24 23 23 22 22 21 21 21 21 21 21 21
27 28 27 27 28 29 27 28 26 29 28 30 29 30 32 32 33 31 30 27 26 26 26 26 28 28 28 27 27 26 26 25 25 24 23 23 22 21 21 21 21 21 21 21
27 29 28 29 26 26 28 30 30 30 28 26 27 30 32 31 31 29 29 28 27 27 26 26 27 28 28 28 27 27 26 24 24 24 24 23 23 22 21 22 21 21 21 21
26 28 28 28 28 26 29 27 27 27 28 28 29 31 30 29 29 30 27 27 27 25 25 26 25 27 28 28 28 26 25 24 24 23 23 24 24 23 22 22 22 21 21 21
26 27 30 29 30 30 28 26 26 30 29 30 29 32 33 33 32 32 28 26 27 25 25 25 24 26 27 27 27 26 25 24 25 23 24 25 25 24 23 22 22 21 21 21
28 29 27 28 27 28 29 29 26 29 30 30 32 29 32 33 32 31 29 25 25 24 24 26 24 26 26 27 26 26 26 25 25 25 25 26 24 24 23 22 21 21 21 20
24 27 26 27 27 27 28 29 28 27 27 28 29 29 32 29 27 27 27 25 25 24 25 25 24 25 26 26 26 26 26 26 26 25 25 26 25 24 23 22 21 21 21 21
26 26 27 28 25 27 28 30 29 29 29 30 30 33 29 30 28 29 27 26 27 29 25 27 27 26 27 27 26 27 26 26 26 26 26 26 25 23 22 22 21 21 21 21
26 25 24 27 25 27 30 28 28 29 30 29 29 29 28 27 27 27 26 27 26 31 26 27 26 27 27 26 26 28 25 26 26 26 26 25 24 23 22 21 21 21 21 20
24 26 25 27 28 26 30 28 28 28 31 28 28 28 27 25 25 29 25 27 29 30 29 29 28 27 27 26 27 27 26 26 25 27 26 25 24 23 22 21 21 21 21 21
23 24 28 24 27 27 30 26 24 25 29 26 25 26 26 24 31 32 24 26 28 27 28 29 28 27 27 27 27 27 28 26 26 27 26 25 24 22 22 21 21 21 21 21
23 23 26 26 27 28 27 25 23 28 28 24 23 24 24 26 26 23 22 24 24 25 26 27 27 28 26 26 27 28 27 27 27 27 26 24 23 22 22 21 21 21 21 21
25 25 25 24 26 26 22 24 26 23 22 21 22 21 22 23 22 22 21 23 22 23 24 25 25 24 25 25 26 26 26 26 26 26 25 23 22 22 22 21 21 21 21 21
25 25 26 25 26 22 21 22 21 21 21 21 20 20 20 22 23 21 19 19 19 22 23 23 23 23 24 24 24 23 21 24 25 24 23 22 22 21 21 20 20 21 21 20
21 19 24 23 22 22 21 21 21 20 20 20 20 20 20 21 22 22 20 19 19 19 20 20 21 20 20 22 21 22 20 21 23 23 21 22 22 20 20 19 20 21 20 20
21 20 21 21 21 21 20 21 20 20 20 20 20 20 20 20 20 20 21 21 20 20 20 20 20 20 21 22 25 24 19 20 22 22 21 23 22 20 20 21 21 20 20 20
19 22 24 23 21 21 22 21 20 20 19 19 19 21 21 22 20 20 21 22 22 22 22 22 22 22 22 22 23 23 19 23 22 21 20 21 21 20 21 20 20 20 19 19
Height
1504 1505 1506 1503 1509 1512 1514 1517 1519 1515 1512 1514 1515 1515 1521 1526 1530 1533 1537 1540 1542 1544 1545 1549 1554 1557 1560 1563 1566 1569 1572 1574 1577 1579 1581 1583 1585 1586 1587 1588 1588 1589 1590 1590
1505 1505 1500 1506 1510 1512 1514 1518 1519 1514 1513 1516 1515 1515 1517 1521 1520 1521 1526 1532 1535 1539 1544 1547 1550 1554 1557 1560 1564 1567 1569 1572 1576 1578 1581 1583 1585 1586 1586 1587 1588 1589 1590 1590
1504 1501 1502 1504 1508 1511 1511 1514 1517 1514 1515 1516 1516 1514 1518 1518 1520 1523 1523 1524 1529 1533 1538 1542 1545 1548 1552 1555 1558 1562 1567 1571 1574 1577 1579 1582 1584 1585 1587 1587 1588 1588 1589 1589
1503 1501 1503 1503 1504 1505 1509 1507 1510 1513 1516 1525 1517 1523 1514 1512 1516 1516 1517 1519 1521 1526 1532 1537 1541 1545 1548 1551 1555 1559 1563 1567 1572 1575 1577 1580 1583 1586 1588 1587 1587 1588 1589 1589
1500 1502 1503 1504 1500 1503 1504 1505 1508 1512 1517 1519 1521 1522 1500 1510 1511 1507 1510 1512 1516 1520 1526 1531 1535 1540 1543 1547 1551 1554 1558 1563 1568 1572 1575 1578 1581 1584 1586 1587 1587 1587 1588 1589
1497 1500 1500 1495 1501 1502 1505 1508 1512 1515 1516 1527 1517 1517 1497 1500 1494 1493 1498 1502 1507 1515 1521 1527 1531 1535 1538 1543 1547 1551 1555 1560 1565 1569 1572 1575 1578 1581 1583 1585 1586 1586 1587 1587
1502 1499 1497 1496 1499 1505 1505 1506 1524 1530 1530 1529 1522 1522 1495 1483 1486 1486 1487 1491 1497 1507 1515 1520 1524 1530 1534 1539 1543 1546 1550 1554 1560 1563 1567 1571 1575 1578 1580 1581 1583 1585 1586 1586
1504 1512 1495 1494 1494 1499 1502 1501 1515 1538 1531 1516 1524 1513 1488 1479 1481 1481 1481 1484 1490 1500 1507 1512 1518 1525 1529 1533 1537 1542 1546 1551 1554 1557 1561 1566 1571 1575 1577 1579 1581 1583 1583 1584
1502 1504 1490 1491 1491 1494 1507 1511 1500 1515 1530 1523 1511 1497 1478 1474 1474 1476 1477 1479 1485 1492 1500 1506 1513 1519 1524 1527 1532 1537 1542 1547 1552 1556 1560 1564 1568 1571 1574 1577 1579 1581 1582 1582
1487 1499 1489 1488 1491 1495 1493 1495 1509 1513 1530 1534 1514 1515 1495 1476 1470 1471 1475 1479 1482 1489 1495 1502 1508 1515 1518 1522 1527 1532 1538 1544 1549 1553 1556 1561 1565 1569 1572 1574 1576 1578 1580 1580
1481 1486 1493 1490 1488 1488 1498 1498 1504 1500 1509 1512 1518 1503 1476 1471 1468 1468 1472 1477 1479 1484 1489 1496 1503 1509 1513 1518 1522 1529 1536 1543 1548 1550 1552 1555 1560 1565 1569 1571 1573 1575 1577 1578
1478 1478 1490 1486 1487 1486 1483 1482 1483 1495 1511 1511 1512 1499 1471 1470 1469 1468 1469 1474 1475 1480 1487 1492 1498 1503 1508 1513 1518 1527 1533 1540 1548 1550 1549 1551 1554 1560 1563 1566 1569 1571 1574 1576
1474 1477 1492 1490 1487 1487 1483 1486 1486 1489 1492 1500 1503 1490 1467 1469 1467 1465 1467 1470 1471 1478 1482 1487 1493 1498 1503 1508 1513 1521 1527 1537 1539 1545 1547 1547 1550 1555 1558 1562 1564 1567 1570 1572
1468 1473 1469 1483 1476 1472 1485 1486 1488 1479 1491 1486 1488 1474 1463 1461 1461 1458 1463 1468 1469 1473 1478 1483 1490 1494 1499 1504 1509 1517 1524 1528 1529 1537 1540 1542 1546 1551 1554 1557 1560 1563 1566 1568
1465 1468 1472 1469 1471 1471 1470 1474 1485 1478 1473 1483 1468 1477 1461 1453 1454 1454 1459 1462 1466 1469 1474 1478 1484 1488 1496 1500 1506 1512 1517 1519 1525 1532 1536 1539 1543 1547 1550 1553 1557 1560 1562 1565
1466 1472 1472 1473 1473 1472 1473 1470 1472 1477 1476 1479 1473 1468 1451 1450 1452 1451 1455 1457 1459 1462 1468 1475 1481 1485 1491 1496 1502 1508 1512 1518 1522 1526 1531 1535 1539 1542 1546 1549 1553 1557 1559 1562
1464 1467 1471 1476 1477 1474 1482 1465 1465 1466 1465 1462 1467 1450 1450 1447 1449 1446 1448 1450 1452 1455 1461 1468 1473 1480 1486 1491 1499 1504 1508 1514 1516 1522 1528 1531 1535 1539 1543 1547 1551 1555 1557 1561
1463 1466 1472 1473 1479 1491 1458 1458 1460 1460 1456 1455 1452 1450 1451 1450 1447 1446 1446 1449 1450 1452 1457 1463 1470 1476 1482 1490 1497 1501 1507 1511 1514 1520 1524 1528 1532 1536 1541 1545 1548 1553 1556 1559
1462 1462 1473 1474 1472 1471 1455 1458 1460 1460 1452 1452 1448 1449 1448 1447 1444 1440 1444 1446 1447 1450 1453 1458 1465 1472 1480 1486 1492 1498 1503 1510 1514 1517 1521 1526 1531 1535 1540 1543 1547 1550 1553 1557
1463 1463 1460 1477 1475 1483 1455 1456 1459 1460 1459 1451 1453 1449 1448 1447 1441 1435 1443 1442 1444 1450 1452 1455 1461 1469 1477 1484 1491 1495 1499 1504 1512 1514 1519 1524 1529 1534 1538 1543 1547 1550 1552 1555
1465 1467 1464 1467 1467 1459 1451 1457 1458 1467 1463 1454 1452 1450 1448 1445 1444 1446 1443 1440 1443 1449 1452 1455 1458 1461 1469 1478 1485 1492 1497 1502 1506 1511 1518 1523 1527 1532 1538 1542 1545 1548 1550 1554
1454 1459 1464 1469 1467 1471 1456 1457 1460 1461 1457 1455 1451 1449 1447 1443 1444 1446 1445 1443 1445 1449 1453 1458 1459 1464 1475 1482 1487 1489 1494 1499 1505 1509 1515 1521 1526 1531 1536 1541 1545 1548 1550 1552
1456 1452 1452 1457 1454 1456 1457 1459 1461 1460 1458 1454 1451 1446 1443 1442 1443 1447 1449 1448 1450 1453 1454 1459 1462 1465 1472 1479 1487 1490 1498 1498 1503 1509 1514 1519 1526 1532 1536 1542 1546 1547 1549 1552
1453 1456 1452 1455 1456 1455 1456 1458 1459 1458 1455 1452 1450 1445 1441 1441 1444 1446 1448 1450 1451 1454 1455 1458 1462 1465 1469 1474 1480 1489 1503 1504 1503 1507 1514 1517 1523 1529 1536 1541 1544 1545 1548 1550
1450 1455 1454 1455 1455 1455 1455 1457 1457 1456 1453 1451 1449 1446 1442 1439 1444 1447 1447 1449 1452 1455 1456 1457 1460 1464 1467 1471 1474 1471 1487 1501 1500 1506 1513 1513 1522 1527 1533 1534 1538 1542 1545 1547
1450 1447 1448 1450 1455 1455 1456 1457 1456 1454 1452 1450 1448 1446 1443 1441 1445 1446 1447 1448 1450 1454 1459 1462 1465 1466 1465 1465 1465 1467 1481 1487 1493 1502 1512 1516 1517 1524 1526 1531 1534 1538 1541 1541
Wind_Speed
2 5 9 10 3 4 4 2 2 3 5 8 11 7 13 21 21 21 22 21 22 24 26 24 24 22 21 20 19 17 16 14 14 17 18 16 12 7 4 4 4 2 2 2
3 11 8 4 7 5 4 1 4 2 3 5 3 9 10 21 26 30 29 26 26 25 22 21 26 24 24 24 22 20 18 17 15 14 16 14 10 8 6 5 4 4 1 1
8 1 5 7 6 6 5 5 4 3 5 3 3 6 8 14 18 22 24 27 27 27 25 24 24 25 25 26 24 22 21 18 16 13 12 13 11 9 7 4 3 0 2 2
5 1 5 6 8 7 10 1 4 5 4 2 2 5 6 11 18 20 27 29 30 29 27 24 24 25 27 25 24 24 23 21 18 15 14 14 13 7 6 5 2 3 1 2
6 5 7 6 8 9 4 5 4 4 3 3 3 5 2 7 12 20 29 32 32 30 29 27 27 25 23 23 20 22 23 23 22 19 16 15 14 10 6 4 2 3 4 3
4 1 4 7 3 4 8 6 6 4 1 5 2 5 6 5 7 9 27 34 34 31 29 27 27 23 22 20 19 19 21 23 23 22 18 17 14 13 11 7 3 4 3 4
2 5 2 2 3 4 3 6 2 2 4 4 1 5 11 9 8 10 15 29 35 32 28 26 27 24 21 20 23 23 22 23 22 23 23 19 15 12 13 10 8 6 3 4
10 8 9 7 10 5 11 5 6 7 4 2 4 6 5 3 8 13 15 16 26 31 29 28 28 26 25 25 27 25 23 24 21 21 23 21 18 14 14 10 7 6 4 5
6 6 2 6 5 8 6 7 1 3 2 3 2 7 12 4 5 3 1 13 21 30 31 30 31 29 28 27 28 29 25 25 23 19 19 21 20 16 14 11 9 8 6 8
6 3 2 5 6 5 7 11 5 1 4 5 4 5 9 13 14 6 3 11 18 26 30 28 31 31 29 28 28 29 28 24 25 22 19 17 19 17 13 12 10 9 9 9
9 5 2 3 10 11 5 5 3 3 2 7 9 7 8 16 12 12 4 11 19 26 29 28 30 32 31 31 28 26 24 22 23 23 22 18 16 17 16 15 16 13 10 9
9 7 9 8 2 3 1 5 8 7 6 3 3 7 5 9 9 11 12 11 18 22 23 27 28 32 33 32 29 25 23 21 17 24 24 23 18 17 19 17 15 17 16 13
11 7 4 5 4 2 5 3 3 3 1 8 9 8 2 7 11 15 12 14 19 16 23 27 28 31 33 32 30 28 29 14 31 34 29 22 19 19 19 20 16 17 17 14
11 4 11 7 11 5 6 6 8 9 4 7 9 12 13 15 13 16 4 10 18 20 22 24 24 30 34 33 29 26 24 29 22 37 28 21 18 19 17 17 16 15 14 14
8 6 6 3 2 5 4 10 13 11 7 6 9 8 14 17 13 14 3 14 18 22 23 27 28 31 32 30 27 22 24 32 22 28 24 16 12 14 17 16 16 14 13 13
2 2 3 3 3 3 3 4 7 6 2 12 13 13 12 23 13 15 7 18 22 24 28 26 28 31 32 29 27 23 25 19 22 26 21 16 12 13 17 16 15 14 10 9
3 5 4 6 1 4 4 13 11 6 8 8 6 9 5 9 9 14 8 20 25 27 27 31 33 34 32 30 28 28 27 22 27 23 20 16 14 15 14 14 13 13 11 9
4 4 0 3 3 5 3 1 4 9 8 12 13 10 9 12 17 17 12 15 19 25 24 28 31 32 31 31 33 32 27 23 23 23 17 15 13 12 14 15 13 12 13 11
1 3 3 3 5 2 3 4 2 2 5 6 4 7 12 11 10 11 3 12 20 22 26 27 28 30 33 39 38 33 29 28 22 20 18 14 13 12 13 14 15 13 13 13
3 2 5 3 4 7 2 3 1 2 5 3 8 8 9 4 4 1 8 5 13 16 24 27 28 30 37 46 39 34 33 22 29 24 21 19 15 12 13 15 14 15 15 16
5 3 10 6 5 3 1 2 4 5 2 11 10 12 10 4 3 11 7 2 5 8 21 24 28 33 42 49 48 39 33 27 27 27 22 18 15 13 15 16 18 20 19 15
4 7 4 3 4 6 4 4 3 6 9 13 14 13 14 11 8 8 4 4 7 11 18 23 25 28 40 48 46 40 37 29 21 26 23 19 16 19 20 20 22 21 17 13
4 2 1 4 1 3 3 5 4 8 12 13 18 19 16 11 4 3 6 10 12 14 17 20 23 26 34 45 42 37 20 29 24 23 25 21 20 22 22 23 23 19 15 11
2 2 2 2 1 1 3 3 8 12 13 13 15 16 14 9 4 5 7 12 14 16 17 20 24 27 29 33 29 30 26 31 31 23 26 25 27 27 25 23 20 15 12 11
2 6 3 1 3 1 4 3 12 13 15 13 13 16 14 10 3 6 10 13 16 17 20 28 33 35 37 40 22 13 44 33 25 28 32 34 33 30 29 25 21 16 13 12
6 4 4 3 4 3 4 9 10 15 17 14 13 14 16 11 3 7 12 13 14 18 20 23 21 25 30 32 31 32 37 30 31 34 36 37 36 32 28 22 20 17 15 14
Wind_Direction
81 206 214 211 141 144 157 218 208 227 210 214 217 206 180 182 187 189 193 199 203 209 208 209 213 217 222 225 225 221 224 221 219 217 217 218 214 223 243 254 271 295 297 257
167 229 224 126 160 175 180 232 249 241 189 226 240 247 197 189 200 193 190 196 207 211 213 218 221 224 228 232 232 232 227 225 220 221 218 221 222 229 234 241 256 252 260 186
208 287 182 196 169 203 228 245 223 280 147 179 273 250 182 208 218 216 209 204 204 211 213 218 223 228 233 237 234 232 229 224 221 223 221 220 217 224 221 226 271 40 215 195
234 340 170 190 211 203 256 202 191 184 199 283 308 299 219 202 209 215 213 210 205 208 215 218 223 229 234 238 234 234 229 224 223 222 229 224 218 220 247 269 236 215 178 209
199 185 191 212 224 194 267 75 118 139 129 298 186 270 220 166 214 219 218 216 213 207 208 215 224 227 234 236 229 226 228 222 223 222 224 224 223 225 231 162 156 232 234 227
216 240 211 240 96 172 146 107 84 86 151 266 315 249 274 196 203 226 218 217 213 210 205 211 220 226 231 233 219 214 222 221 224 223 223 221 223 222 212 206 247 275 276 243
179 211 255 204 134 115 175 165 244 231 209 253 171 219 263 261 242 243 212 215 212 207 203 203 215 215 223 218 198 208 216 212 219 222 222 217 220 221 208 217 241 226 274 224
201 208 202 172 218 190 183 234 220 254 234 260 179 239 257 250 285 267 247 232 212 203 200 201 209 215 220 218 214 214 216 214 214 219 221 218 217 225 214 218 220 198 198 202
168 233 207 216 160 184 168 209 40 146 110 259 302 278 275 272 262 308 247 190 193 195 196 200 206 212 217 219 218 217 216 216 214 218 220 223 221 219 216 221 229 221 227 224
180 231 207 142 129 59 214 149 174 179 229 247 220 276 272 300 308 325 210 181 185 189 195 196 203 211 215 219 220 220 222 219 218 215 217 220 226 227 226 226 237 244 235 244
175 220 118 165 209 173 154 188 64 135 272 256 266 261 238 259 279 293 251 187 185 184 189 193 200 210 215 220 222 220 222 222 223 215 217 216 222 227 233 243 242 245 243 242
183 203 222 211 74 14 221 195 190 216 206 244 289 263 260 269 278 280 287 204 196 190 182 192 198 208 212 220 221 218 220 218 240 231 216 216 215 227 230 233 248 245 246 252
171 208 179 180 172 141 225 175 160 119 127 220 254 270 169 260 270 275 269 203 197 178 185 192 196 204 211 217 221 213 207 149 226 237 221 215 216 230 232 234 238 246 244 252
170 163 202 199 195 164 173 186 200 211 185 238 233 262 270 274 275 278 253 199 200 189 193 193 191 202 211 216 219 212 204 206 227 216 213 217 221 229 230 230 230 240 242 244
191 217 193 190 178 185 191 179 191 204 212 227 256 219 259 264 268 280 280 183 197 188 190 196 191 200 203 212 212 204 195 200 210 210 208 220 222 229 225 225 225 234 235 238
137 178 194 130 147 185 224 237 207 245 219 247 269 271 274 278 259 263 224 183 195 196 199 196 194 198 201 205 202 204 207 208 204 206 201 215 234 238 214 214 215 222 220 216
173 156 189 156 108 161 236 230 201 204 212 231 234 273 329 309 269 260 235 191 197 203 198 197 200 198 200 199 193 186 203 204 194 196 199 219 238 206 201 205 206 210 212 216
148 117 68 132 172 215 33 89 277 235 245 228 262 279 288 288 281 282 272 206 210 209 203 202 197 196 195 190 186 191 195 186 170 175 200 204 191 193 192 195 198 206 217 214
242 149 124 199 199 341 253 148 184 242 232 206 266 315 306 303 284 279 246 220 230 218 211 211 204 195 185 178 177 191 192 192 180 185 191 190 193 200 192 194 204 211 205 194
138 6 222 164 195 211 244 122 65 196 258 120 321 320 308 280 234 168 26 248 232 213 216 206 200 193 185 178 179 184 184 182 186 189 195 200 204 204 205 203 202 189 180 180
152 163 205 182 219 239 316 38 143 215 346 327 330 317 295 253 286 336 6 340 221 204 205 202 204 203 191 183 184 188 198 205 192 190 196 196 196 197 203 201 194 182 180 186
167 165 173 164 186 214 27 129 235 342 330 333 334 326 305 277 270 354 43 129 147 163 179 196 195 199 193 190 193 199 205 207 186 184 192 193 190 197 192 193 183 184 189 194
190 295 121 221 65 85 46 81 3 341 320 329 327 322 311 286 272 37 114 118 127 140 155 177 182 185 188 197 204 214 225 213 187 196 188 182 191 195 184 186 190 188 193 206
168 189 223 196 54 301 155 91 24 358 332 327 342 334 331 304 295 195 151 137 138 146 151 159 171 175 176 186 192 213 260 237 220 200 189 183 185 179 182 188 192 196 210 216
87 155 164 183 262 60 102 338 333 351 360 352 347 356 348 346 358 184 177 158 156 154 154 157 157 158 163 170 215 300 235 230 211 197 195 182 180 182 188 189 193 202 213 218
193 173 207 174 122 66 353 338 344 344 349 346 342 350 4 339 342 196 186 176 160 165 159 176 197 207 214 216 215 199 198 189 189 189 190 183 179 187 187 194 196 205 216 215